| time (UTC) | temp F | wind direction | speed MPH | gust MPH | rain 1hr in | rain 24hr in | rain mn in | humidity % | barometer mb |
| 20260508041057 | 42 | 5 | 0.0 | 0.0 | 0.00 | 0.01 | 0.00 | 86 | 1011.0 |
| 20260508040039 | 43 | 349 | 0.0 | 2.0 | 0.00 | 0.01 | 0.00 | 83 | 1010.9 |
| 20260508035058 | 44 | 346 | 0.0 | 0.0 | 0.00 | 0.00 | 0.00 | 80 | 1010.9 |
| 20260508034039 | 44 | 332 | 0.0 | 1.0 | 0.00 | 0.00 | 0.00 | 78 | 1010.8 |
| 20260508031945 | 44 | 338 | 0.0 | 0.0 | 0.00 | 0.00 | 0.00 | 76 | 1010.7 |
| 20260508030953 | 44 | 354 | 0.0 | 2.0 | 0.00 | 0.00 | 0.00 | 75 | 1010.7 |
| 20260508025932 | 44 | 351 | 0.0 | 0.0 | 0.00 | 0.00 | 0.00 | 75 | 1010.8 |
| 20260508024858 | 43 | 326 | 0.0 | 1.0 | 0.00 | 0.00 | 0.00 | 74 | 1010.9 |
| 20260508023922 | 43 | 347 | 0.0 | 0.0 | 0.00 | 0.00 | 0.00 | 73 | 1010.7 |
| 20260508021744 | 43 | 344 | 0.0 | 0.0 | 0.00 | 0.00 | 0.00 | 70 | 1010.7 |
| 20260508020715 | 44 | 6 | 0.0 | 0.0 | 0.00 | 0.00 | 0.00 | 69 | 1010.3 |
| 20260508015714 | 44 | 6 | 0.0 | 0.0 | 0.00 | 0.00 | 0.00 | 68 | 1010.4 |
| 20260508013626 | 43 | 4 | 0.0 | 0.0 | 0.00 | 0.00 | 0.00 | 67 | 1010.0 |
| 20260508012608 | 44 | 4 | 0.0 | 0.0 | 0.00 | 0.00 | 0.00 | 66 | 1010.0 |
| 20260508011552 | 45 | 4 | 0.0 | 0.0 | 0.00 | 0.00 | 0.00 | 64 | 1009.9 |
| 20260508010557 | 45 | 4 | 0.0 | 0.0 | 0.00 | 0.00 | 0.00 | 63 | 1010.0 |
| 20260508005530 | 45 | 4 | 0.0 | 0.0 | 0.00 | 0.00 | 0.00 | 62 | 1009.8 |
| 20260508004503 | 45 | 4 | 0.0 | 0.0 | 0.00 | 0.00 | 0.00 | 65 | 1009.7 |
| 20260508003436 | 46 | 4 | 0.0 | 0.0 | 0.00 | 0.00 | 0.00 | 61 | 1009.6 |
| 20260508001259 | 46 | 4 | 0.0 | 0.0 | 0.00 | 0.00 | 0.00 | 62 | 1009.5 |
| 20260507235040 | 47 | 4 | 0.0 | 0.0 | 0.00 | 0.00 | 0.00 | 58 | 1009.4 |
| 20260507234011 | 48 | 18 | 0.0 | 0.0 | 0.00 | 0.00 | 0.00 | 58 | 1009.4 |
| 20260507233015 | 48 | 40 | 0.0 | 0.0 | 0.00 | 0.00 | 0.00 | 56 | 1009.4 |
| 20260507231945 | 49 | 349 | 0.0 | 1.0 | 0.00 | 0.00 | 0.00 | 56 | 1009.4 |
| 20260507224735 | 50 | 0 | 0.0 | 1.0 | 0.00 | 0.00 | 0.00 | 56 | 1009.3 |
| 20260507223701 | 50 | 333 | 0.0 | 1.0 | 0.00 | 0.00 | 0.00 | 55 | 1009.3 |
| 20260507222643 | 51 | 352 | 0.0 | 0.0 | 0.00 | 0.00 | 0.00 | 53 | 1009.3 |
| 20260507221622 | 51 | 334 | 0.0 | 2.0 | 0.00 | 0.00 | 0.00 | 51 | 1009.4 |
| 20260507214344 | 55 | 359 | 0.0 | 4.0 | 0.00 | 0.00 | 0.00 | 51 | 1009.3 |
| 20260507213336 | 55 | 341 | 0.0 | 4.0 | 0.00 | 0.00 | 0.00 | 52 | 1009.3 |
| 20260507212314 | 54 | 350 | 0.0 | 4.0 | 0.00 | 0.00 | 0.00 | 50 | 1009.2 |
| 20260507211252 | 55 | 12 | 0.0 | 4.0 | 0.00 | 0.00 | 0.00 | 50 | 1009.3 |
| 20260507210245 | 53 | 124 | 0.0 | 4.0 | 0.00 | 0.00 | 0.00 | 53 | 1009.3 |
| 20260507205220 | 53 | 344 | 0.0 | 4.0 | 0.00 | 0.00 | 0.00 | 52 | 1009.4 |
| 20260507204208 | 53 | 331 | 0.0 | 0.0 | 0.00 | 0.00 | 0.00 | 56 | 1009.3 |
| 20260507203203 | 54 | 344 | 0.0 | 4.0 | 0.00 | 0.00 | 0.00 | 53 | 1009.3 |
| 20260507202156 | 56 | 63 | 1.0 | 4.0 | 0.00 | 0.00 | 0.00 | 50 | 1009.4 |
| 20260507201151 | 55 | 98 | 0.0 | 3.0 | 0.00 | 0.00 | 0.00 | 53 | 1009.4 |
| 20260507200152 | 54 | 40 | 0.0 | 4.0 | 0.00 | 0.00 | 0.00 | 52 | 1009.5 |
| 20260507195128 | 54 | 15 | 0.0 | 4.0 | 0.00 | 0.00 | 0.00 | 54 | 1009.6 |
| 20260507194105 | 52 | 15 | 0.0 | 3.0 | 0.00 | 0.00 | 0.00 | 57 | 1009.6 |
| 20260507193046 | 52 | 308 | 0.0 | 3.0 | 0.00 | 0.00 | 0.00 | 59 | 1009.8 |
| 20260507192035 | 53 | 352 | 1.0 | 5.0 | 0.00 | 0.00 | 0.00 | 58 | 1009.8 |
| 20260507191049 | 54 | 359 | 0.0 | 5.0 | 0.00 | 0.00 | 0.00 | 56 | 1009.7 |
| 20260507184921 | 54 | 339 | 1.0 | 4.0 | 0.00 | 0.00 | 0.00 | 52 | 1009.9 |
| 20260507183925 | 54 | 353 | 0.0 | 4.0 | 0.00 | 0.00 | 0.00 | 54 | 1009.9 |
| 20260507181815 | 55 | 321 | 0.0 | 4.0 | 0.00 | 0.00 | 0.00 | 48 | 1010.0 |
| 20260507180745 | 55 | 353 | 0.0 | 4.0 | 0.00 | 0.00 | 0.00 | 53 | 1010.0 |
| 20260507175806 | 54 | 163 | 0.0 | 3.0 | 0.00 | 0.00 | 0.00 | 54 | 1010.1 |
| 20260507174809 | 54 | 352 | 1.0 | 5.0 | 0.00 | 0.00 | 0.00 | 53 | 1010.1 |
| 20260507172653 | 54 | 345 | 0.0 | 4.0 | 0.00 | 0.00 | 0.00 | 53 | 1010.4 |
| 20260507170548 | 53 | 350 | 0.0 | 5.0 | 0.00 | 0.00 | 0.00 | 48 | 1010.6 |
| 20260507165613 | 53 | 302 | 0.0 | 5.0 | 0.00 | 0.00 | 0.00 | 54 | 1010.7 |
| 20260507164556 | 53 | 136 | 1.0 | 6.0 | 0.00 | 0.00 | 0.00 | 50 | 1010.7 |
| 20260507163535 | 53 | 354 | 1.0 | 6.0 | 0.00 | 0.00 | 0.00 | 54 | 1011.0 |
| 20260507162545 | 53 | 336 | 0.0 | 6.0 | 0.00 | 0.00 | 0.00 | 55 | 1011.0 |
| 20260507161517 | 52 | 322 | 1.0 | 6.0 | 0.00 | 0.00 | 0.00 | 53 | 1011.1 |
| 20260507160450 | 51 | 338 | 1.0 | 4.0 | 0.00 | 0.00 | 0.00 | 56 | 1011.3 |
| 20260507155452 | 52 | 332 | 0.0 | 3.0 | 0.00 | 0.00 | 0.00 | 60 | 1011.3 |
| 20260507154454 | 51 | 344 | 1.0 | 0.0 | 0.00 | 0.00 | 0.00 | 59 | 1011.3 |
| 20260507153449 | 51 | 332 | 0.0 | 3.0 | 0.00 | 0.00 | 0.00 | 59 | 1011.5 |
| 20260507152454 | 51 | 166 | 0.0 | 1.0 | 0.00 | 0.00 | 0.00 | 58 | 1011.6 |
| 20260507151504 | 51 | 327 | 0.0 | 2.0 | 0.00 | 0.00 | 0.00 | 61 | 1011.6 |
| 20260507150516 | 50 | 38 | 1.0 | 3.0 | 0.00 | 0.00 | 0.00 | 59 | 1011.6 |
| 20260507145459 | 51 | 11 | 0.0 | 2.0 | 0.00 | 0.00 | 0.00 | 60 | 1011.7 |
| 20260507144510 | 49 | 155 | 0.0 | 1.0 | 0.00 | 0.00 | 0.00 | 64 | 1011.7 |
| 20260507143524 | 49 | 350 | 0.0 | 3.0 | 0.00 | 0.00 | 0.00 | 60 | 1011.8 |
| 20260507142516 | 48 | 346 | 0.0 | 3.0 | 0.00 | 0.00 | 0.00 | 60 | 1011.9 |
| 20260507140330 | 47 | 158 | 0.0 | 2.0 | 0.00 | 0.01 | 0.00 | 64 | 1012.1 |
| 20260507135349 | 47 | 329 | 0.0 | 3.0 | 0.00 | 0.01 | 0.00 | 63 | 1012.2 |
| 20260507134359 | 45 | 335 | 0.0 | 0.0 | 0.00 | 0.01 | 0.00 | 69 | 1012.3 |
| 20260507133408 | 44 | 336 | 0.0 | 0.0 | 0.00 | 0.02 | 0.00 | 70 | 1012.5 |
| 20260507132355 | 43 | 354 | 0.0 | 0.0 | 0.00 | 0.02 | 0.00 | 72 | 1012.5 |
| 20260507131343 | 43 | 348 | 0.0 | 0.0 | 0.00 | 0.02 | 0.00 | 71 | 1012.6 |
| 20260507130333 | 44 | 352 | 0.0 | 1.0 | 0.00 | 0.02 | 0.00 | 71 | 1012.5 |
| 20260507124211 | 43 | 40 | 0.0 | 0.0 | 0.00 | 0.03 | 0.00 | 72 | 1012.3 |
| 20260507120942 | 43 | 359 | 0.0 | 0.0 | 0.00 | 0.04 | 0.00 | 81 | 1012.3 |
| 20260507115946 | 42 | 340 | 0.0 | 0.0 | 0.00 | 0.05 | 0.00 | 84 | 1012.4 |
| 20260507114948 | 41 | 350 | 0.0 | 0.0 | 0.00 | 0.06 | 0.00 | 89 | 1012.0 |
| 20260507113930 | 41 | 350 | 0.0 | 0.0 | 0.00 | 0.06 | 0.00 | 91 | 1011.9 |
| 20260507112943 | 40 | 350 | 0.0 | 0.0 | 0.00 | 0.06 | 0.00 | 92 | 1012.2 |
| 20260507112007 | 39 | 350 | 0.0 | 0.0 | 0.00 | 0.06 | 0.00 | 93 | 1012.2 |
| 20260507105920 | 38 | 350 | 0.0 | 0.0 | 0.00 | 0.07 | 0.00 | 93 | 1012.0 |
| 20260507103714 | 37 | 350 | 0.0 | 0.0 | 0.00 | 0.08 | 0.00 | 92 | 1011.8 |
| 20260507101521 | 36 | 350 | 0.0 | 0.0 | 0.00 | 0.10 | 0.00 | 92 | 1011.6 |
| 20260507100515 | 36 | 350 | 0.0 | 0.0 | 0.00 | 0.13 | 0.00 | 91 | 1011.8 |
| 20260507095526 | 36 | 350 | 0.0 | 0.0 | 0.00 | 0.13 | 0.00 | 91 | 1011.7 |
| 20260507093415 | 35 | 350 | 0.0 | 0.0 | 0.00 | 0.16 | 0.00 | 91 | 1011.7 |
| 20260507092408 | 35 | 350 | 0.0 | 0.0 | 0.00 | 0.17 | 0.00 | 90 | 1011.6 |
| 20260507091347 | 35 | 350 | 0.0 | 0.0 | 0.00 | 0.17 | 0.00 | 90 | 1011.5 |
| 20260507090330 | 35 | 350 | 0.0 | 0.0 | 0.00 | 0.18 | 0.00 | 90 | 1011.6 |
| 20260507085335 | 36 | 350 | 0.0 | 0.0 | 0.00 | 0.18 | 0.00 | 91 | 1011.6 |
| 20260507080926 | 37 | 351 | 0.0 | 0.0 | 0.00 | 0.24 | 0.00 | 91 | 1011.4 |
| 20260507075936 | 38 | 350 | 0.0 | 0.0 | 0.00 | 0.26 | 0.00 | 91 | 1011.7 |
| 20260507074929 | 38 | 350 | 0.0 | 0.0 | 0.00 | 0.28 | 0.00 | 91 | 1011.8 |
| 20260507073952 | 38 | 350 | 0.0 | 0.0 | 0.00 | 0.29 | 0.00 | 91 | 1011.8 |
| 20260507072922 | 38 | 350 | 0.0 | 0.0 | 0.00 | 0.31 | 0.00 | 91 | 1011.9 |
| 20260507071940 | 38 | 350 | 0.0 | 0.0 | 0.00 | 0.32 | 0.00 | 90 | 1012.0 |
| 20260507070926 | 38 | 350 | 0.0 | 0.0 | 0.00 | 0.35 | 0.00 | 89 | 1011.9 |
| 20260507065923 | 39 | 350 | 0.0 | 0.0 | 0.00 | 0.36 | 0.00 | 88 | 1011.9 |
| 20260507063823 | 40 | 350 | 0.0 | 0.0 | 0.00 | 0.42 | 0.00 | 88 | 1011.7 |
| 20260507062828 | 40 | 350 | 0.0 | 0.0 | 0.00 | 0.46 | 0.00 | 88 | 1011.6 |
| 20260507060655 | 41 | 351 | 0.0 | 0.0 | 0.00 | 0.51 | 0.00 | 87 | 1011.8 |
| 20260507055625 | 41 | 350 | 0.0 | 0.0 | 0.00 | 0.53 | 0.00 | 87 | 1012.0 |
| 20260507054636 | 41 | 350 | 0.0 | 0.0 | 0.00 | 0.54 | 0.00 | 86 | 1012.1 |
| 20260507053643 | 41 | 359 | 0.0 | 0.0 | 0.00 | 0.54 | 0.00 | 87 | 1012.2 |
| 20260507051523 | 41 | 49 | 0.0 | 0.0 | 0.00 | 0.58 | 0.00 | 87 | 1012.3 |
| 20260507050534 | 42 | 120 | 0.0 | 0.0 | 0.00 | 0.59 | 0.00 | 88 | 1012.3 |
| 20260507045542 | 42 | 15 | 0.0 | 0.0 | 0.00 | 0.61 | 0.00 | 89 | 1012.3 |
| 20260507043404 | 42 | 3 | 0.0 | 0.0 | 0.00 | 0.63 | 0.00 | 91 | 1012.3 |